Terminal Aerodrome Forecast
Issued by NWS

Home | Current Version | Previous Version | Text Only | Print | Product List | Glossary On
Versions: 1 2 3 4 5 6 7 8 9 10 11 12 13 14 15 16 17
770
FTUS41 KPBZ 092339
TAFDUJ
TAF
KDUJ 092339Z 1000/1024 26009KT P6SM FEW019 OVC029
     FM100600 26010KT 3SM -SHSN OVC008=

USA.gov is the U.S. government's official web portal to all federal, state and local government web resources and services.